Weather in Baotou

China     40°37′21″N   109°49′51″E
temp.,
°C
wind,
m/s
gust,
m/s
humid.,
%
clouds,
%
prec.,
mm/h
press.,
hPa
HPBL,
m
20 january, wed
wed2023:00−5w34360 0.0 102140
02:00−7w44390 0.0 102275
05:00−8w35460 0.0 102375
08:00−9w46480 0.0 102584
11:00−5w33320 0.0 1025219
14:00−2w33250 0.0 1022451
17:00−3w2326100 0.0 102348
20:00−6ese1133100 0.0 102421
21 january, thu
thu2123:00−7ene233557 0.0 102521
02:00−8ene224128 0.0 102521
05:00−9e01460 0.0 102521
08:00−10nnw01520 0.0 102621
11:00−4w46310 0.0 1027291
14:00−1w34241 0.0 1025493
17:00−2w35270 0.0 1026116
20:00−5nne22350 0.0 102924
22 january, fri
fri2223:00−7nne22460 0.0 102922
02:00−7ne23490 0.0 102821
05:00−8e34510 0.0 102645
08:00−9e45580 0.0 102779
11:00−5e46400 0.0 1024236
14:00−1e45300 0.0 1020308
17:00−1e46320 0.0 1019168
20:00−4e46390 0.0 1020105
23 january, sat
sat2323:00−5e35437 0.0 102077
02:00−6e344644 0.0 101974
05:00−7e34484 0.0 101861
08:00−8ene34502 0.0 102042
11:00−3e34350 0.0 1020196
14:000e23290 0.0 1018329
17:00−1e22330 0.0 101929
20:00−3ene34380 0.0 102131
24 january, sun
sun2423:00−5e33450 0.0 102329
02:00−5e34480 0.0 102340
05:00−7e33530 0.0 102333
08:00−7e23580 0.0 102426
11:00−2e473733 0.0 1023271
14:00+1ese343067 0.0 1019343
17:000e4733100 0.0 1021151
20:00−2w91289100 0.8 1025542